PST,Max TemperatureF,Mean TemperatureF,Min TemperatureF,Max Dew PointF,MeanDew PointF,Min DewpointF,Max Humidity, Mean Humidity, Min Humidity, Max Sea Level PressureIn, Mean Sea Level PressureIn, Min Sea Level PressureIn, Max VisibilityMiles, Mean VisibilityMiles, Min VisibilityMiles, Max Wind SpeedMPH, Mean Wind SpeedMPH, Max Gust SpeedMPH,PrecipitationIn, CloudCover, Events, WindDirDegrees
2013-1-1,50,41,32,34,32,30,100,75,50,30.25,30.22,30.19,10,10,10,8,4,,0.00,0,,80
2013-1-2,53,42,30,36,30,25,100,68,35,30.24,30.18,30.13,10,10,10,8,2,,0.00,0,,125
2013-1-3,53,43,33,36,32,28,93,72,47,30.25,30.20,30.15,10,10,10,10,4,,0.00,0,,98
2013-1-4,53,42,32,37,33,25,93,67,47,30.43,30.23,30.19,10,10,10,12,3,,0.00,0,,127
2013-1-5,53,45,37,41,37,32,93,73,47,30.26,30.17,30.08,10,8,3,9,4,,0.00,1,,123
2013-1-6,48,42,35,45,41,36,100,93,71,30.17,30.12,30.07,10,5,2,5,0,,0.07,5,,296
2013-1-7,51,42,33,43,37,32,100,85,58,30.22,30.16,30.11,10,9,2,8,2,,0.00,0,,129
2013-1-8,53,44,35,45,41,36,100,91,71,30.23,30.17,30.14,10,6,0,7,2,,0.00,2,,146
2013-1-9,51,44,37,45,41,37,100,88,67,30.17,30.02,29.89,10,8,1,18,4,23,0.44,2,,163
2013-1-10,44,38,32,37,33,30,100,86,57,30.11,30.04,29.99,10,10,8,9,3,,0.00,1,,337
2013-1-11,44,37,30,32,29,25,93,80,53,30.19,30.13,30.10,10,10,10,8,4,,0.00,0,,118
2013-1-12,41,34,28,27,22,18,80,61,39,30.18,30.14,30.11,10,10,10,10,4,,0.00,0,,117
2013-1-13,42,35,28,27,18,9,80,53,28,30.21,30.16,30.12,10,10,10,9,4,16,0.00,0,,71
2013-1-14,48,38,28,27,18,10,86,49,31,30.35,30.29,30.16,10,10,10,10,4,,0.00,0,,38
2013-1-15,46,39,32,32,28,23,93,69,46,30.46,30.41,30.36,10,10,10,6,3,,0.00,0,,125
2013-1-16,55,44,32,32,30,23,93,65,29,30.42,30.34,30.27,10,10,10,7,2,,0.00,0,,129
2013-1-17,62,48,33,37,29,19,87,52,29,30.27,30.23,30.18,10,10,10,9,2,,0.00,0,,111
2013-1-18,64,50,37,36,30,21,87,46,22,30.25,30.19,30.16,10,10,10,9,5,,0.00,0,,106
2013-1-19,62,50,39,36,31,25,81,49,31,30.27,30.21,30.18,10,10,10,8,5,,0.00,0,,107
2013-1-20,62,50,39,36,30,21,66,47,27,30.24,30.20,30.14,10,10,5,10,4,,0.00,0,,101
2013-1-21,62,48,35,37,31,21,87,50,31,30.19,30.16,30.12,10,10,10,9,2,,0.00,0,,132
2013-1-22,66,54,42,43,31,19,76,46,24,30.16,30.09,30.05,10,10,10,12,5,,0.00,0,,109
2013-1-23,62,54,46,48,35,23,88,52,27,30.10,30.06,30.00,10,10,3,13,4,,0.03,3,,105
2013-1-24,60,55,50,52,48,43,100,80,63,30.20,30.13,30.07,10,8,2,10,4,,0.00,7,,106
2013-1-25,62,56,51,55,53,52,100,93,72,30.19,30.12,30.05,10,8,0,9,2,,0.00,5,,164
2013-1-26,53,48,42,54,47,37,100,89,58,30.04,29.97,29.93,10,8,0,14,4,17,0.00,5,,163
2013-1-27,48,42,35,39,37,32,100,84,62,30.12,30.07,30.00,10,10,5,9,4,,0.03,3,,162
2013-1-28,51,42,33,36,32,27,93,69,50,30.24,30.16,30.09,10,10,10,9,4,,0.00,0,,350
2013-1-29,53,45,37,39,35,32,87,68,50,30.31,30.26,30.23,10,10,10,10,3,,0.00,0,,61
2013-1-30,57,46,35,43,39,34,93,71,54,30.34,30.29,30.26,10,10,10,8,3,,0.00,0,,149
2013-1-31,62,50,37,45,40,36,100,73,42,30.30,30.25,30.20,10,10,10,7,3,,0.00,0,,131